TimeEDT,TemperatureF,Dew PointF,Humidity,Sea Level PressureIn,VisibilityMPH,Wind Direction,Wind SpeedMPH,Gust SpeedMPH,PrecipitationIn,Events,Conditions,WindDirDegrees,DateUTC
12:52 AM,70.0,64.9,84,30.07,9.0,Variable,3.5,-,N/A,,Overcast,0,2013-07-10 04:52:00
1:52 AM,69.1,64.9,87,30.06,8.0,Calm,Calm,-,N/A,,Overcast,0,2013-07-10 05:52:00
2:52 AM,69.1,64.9,87,30.04,8.0,SE,3.5,-,N/A,,Overcast,130,2013-07-10 06:52:00
3:01 AM,68.0,64.4,88,30.04,7.0,ESE,3.5,-,N/A,,Overcast,120,2013-07-10 07:01:00
3:52 AM,66.9,64.9,93,30.04,3.0,Calm,Calm,-,N/A,,Overcast,0,2013-07-10 07:52:00
4:04 AM,66.2,64.4,94,30.04,2.5,Calm,Calm,-,N/A,,Overcast,0,2013-07-10 08:04:00
4:27 AM,66.2,64.4,94,30.03,1.8,East,3.5,-,N/A,,Overcast,100,2013-07-10 08:27:00
4:38 AM,66.2,64.4,94,30.03,2.0,ESE,3.5,-,N/A,,Overcast,110,2013-07-10 08:38:00
4:52 AM,66.9,64.9,93,30.02,2.5,Calm,Calm,-,N/A,,Overcast,0,2013-07-10 08:52:00
5:09 AM,66.2,64.4,94,30.02,3.0,Calm,Calm,-,N/A,,Overcast,0,2013-07-10 09:09:00
5:35 AM,66.2,64.4,94,30.03,2.0,Calm,Calm,-,N/A,,Overcast,0,2013-07-10 09:35:00
5:43 AM,66.2,64.4,94,30.03,1.8,Calm,Calm,-,N/A,,Overcast,0,2013-07-10 09:43:00
5:52 AM,66.9,66.0,97,30.03,1.8,Calm,Calm,-,N/A,,Overcast,0,2013-07-10 09:52:00
6:20 AM,66.2,66.2,100,30.03,2.0,ESE,3.5,-,0.01,,Overcast,110,2013-07-10 10:20:00
6:28 AM,66.2,66.2,100,30.03,1.5,ESE,3.5,-,0.01,,Overcast,110,2013-07-10 10:28:00
6:39 AM,66.2,66.2,100,30.02,2.0,Calm,Calm,-,0.01,,Overcast,0,2013-07-10 10:39:00
6:52 AM,68.0,66.0,93,30.02,3.0,Calm,Calm,-,0.01,,Overcast,0,2013-07-10 10:52:00
7:04 AM,68.0,66.2,94,30.02,2.5,East,3.5,-,N/A,,Overcast,100,2013-07-10 11:04:00
7:24 AM,68.0,66.2,94,30.02,2.5,ESE,3.5,-,N/A,,Overcast,110,2013-07-10 11:24:00
7:43 AM,68.0,66.2,94,30.01,3.0,East,3.5,-,N/A,,Overcast,100,2013-07-10 11:43:00
7:52 AM,68.0,66.0,93,30.01,4.0,East,3.5,-,N/A,,Overcast,90,2013-07-10 11:52:00
8:52 AM,69.1,66.9,93,30.00,8.0,SE,4.6,-,0.00,,Overcast,130,2013-07-10 12:52:00
9:52 AM,70.0,68.0,93,29.99,5.0,SE,3.5,-,N/A,,Overcast,130,2013-07-10 13:52:00
10:52 AM,72.0,69.1,91,29.97,6.0,SSE,4.6,-,N/A,,Overcast,150,2013-07-10 14:52:00
11:52 AM,75.0,70.0,84,29.95,6.0,ESE,4.6,-,N/A,,Haze,110,2013-07-10 15:52:00
12:08 PM,75.2,71.6,89,29.94,6.0,ENE,4.6,-,N/A,,Haze,60,2013-07-10 16:08:00
12:52 PM,80.1,72.0,76,29.92,7.0,Variable,4.6,-,N/A,,Overcast,0,2013-07-10 16:52:00
1:17 PM,82.4,71.6,70,29.90,7.0,Variable,3.5,-,N/A,,Mostly Cloudy,0,2013-07-10 17:17:00
1:30 PM,82.4,71.6,70,29.89,8.0,SSE,5.8,-,N/A,,Mostly Cloudy,150,2013-07-10 17:30:00
1:39 PM,82.4,71.6,70,29.89,8.0,SE,4.6,-,N/A,,Mostly Cloudy,140,2013-07-10 17:39:00
1:48 PM,82.4,73.4,74,29.88,8.0,SSE,3.5,-,N/A,,Mostly Cloudy,150,2013-07-10 17:48:00
1:52 PM,82.0,73.0,74,29.87,8.0,Calm,Calm,-,N/A,,Mostly Cloudy,0,2013-07-10 17:52:00
1:59 PM,82.4,73.4,74,29.88,1.8,West,5.8,-,0.08,Rain,Heavy Rain,270,2013-07-10 17:59:00
2:01 PM,80.6,73.4,79,29.88,1.0,West,3.5,-,0.10,Rain,Heavy Rain,280,2013-07-10 18:01:00
2:08 PM,80.6,73.4,79,29.88,1.2,Variable,3.5,-,0.11,Rain,Light Rain,0,2013-07-10 18:08:00
2:12 PM,80.6,75.2,84,29.87,3.0,Calm,Calm,-,0.11,Rain,Rain,0,2013-07-10 18:12:00
2:52 PM,84.0,73.0,69,29.85,9.0,SSE,12.7,18.4,0.11,,Mostly Cloudy,160,2013-07-10 18:52:00
3:52 PM,84.0,72.0,67,29.83,10.0,South,9.2,17.3,0.00,,Partly Cloudy,180,2013-07-10 19:52:00
4:52 PM,82.0,73.0,74,29.82,10.0,SSW,8.1,-,N/A,,Mostly Cloudy,200,2013-07-10 20:52:00
5:02 PM,82.4,73.4,74,29.82,10.0,SSW,8.1,-,N/A,Thunderstorm,Mostly Cloudy,200,2013-07-10 21:02:00
5:17 PM,82.4,73.4,74,29.81,10.0,South,12.7,17.3,N/A,,Mostly Cloudy,190,2013-07-10 21:17:00
5:52 PM,80.1,73.9,81,29.81,2.5,SW,6.9,17.3,0.05,Rain-Thunderstorm,Light Thunderstorms and Rain,220,2013-07-10 21:52:00
6:00 PM,78.8,73.4,83,29.81,1.8,SSW,6.9,-,0.02,Rain-Thunderstorm,Light Thunderstorms and Rain,200,2013-07-10 22:00:00
6:03 PM,78.8,73.4,83,29.81,3.0,WSW,3.5,-,0.02,Rain,Rain,240,2013-07-10 22:03:00
6:14 PM,78.8,75.2,89,29.81,5.0,Variable,4.6,-,0.03,Rain,Light Rain,0,2013-07-10 22:14:00
6:52 PM,79.0,73.9,84,29.81,8.0,South,4.6,-,0.03,,Scattered Clouds,180,2013-07-10 22:52:00
7:52 PM,78.1,73.0,84,29.81,10.0,South,3.5,-,N/A,,Clear,190,2013-07-10 23:52:00
8:52 PM,77.0,73.0,88,29.82,10.0,South,4.6,-,0.01,,Partly Cloudy,170,2013-07-11 00:52:00
9:52 PM,77.0,73.0,88,29.82,10.0,SSE,3.5,-,N/A,,Clear,150,2013-07-11 01:52:00
10:52 PM,75.9,72.0,87,29.83,10.0,SE,5.8,-,N/A,,Clear,140,2013-07-11 02:52:00
11:30 PM,75.2,71.6,89,29.82,10.0,Calm,Calm,-,N/A,,Mostly Cloudy,0,2013-07-11 03:30:00
11:52 PM,75.9,72.0,87,29.81,10.0,SSW,3.5,-,N/A,,Overcast,200,2013-07-11 03:52:00